Location: *
(57.8420°S, 159.8600°W)
Time: 04:08:30
(UTC+00:00)

Cosmos 2151 - Pass Details

Date: 18 May 2021
Orbit: 580 x 602 km, 82.5° (Epoch: 23 June)

Event Time Altitude Azimuth Distance (km) Brightness Sun altitude
Rises 04:22:25 0° 16° (NNE) 2,814 6.4 -14.7°
Reaches altitude 10° 04:24:44 10° 24° (NNE) 1,923 5.5 -15.0°
Maximum altitude 04:28:34 34° 89° (E) 994 3.6 -15.5°
Enters shadow 04:30:18 24° 132° (SE) 1,246 4.1 -15.8°
